Погода в Мэйчжоу

Китай     24°17′13″N   116°05′25″E
темп.,
°C
ветер,
м/с
пор.,
м/с
влажн.,
%
обл.,
%
осадки,
мм/ч
давл.,
гПа
погр.,
м
18 апреля, вс
вс1823:00+22ссв1172100 0.0 101721
02:00+22в1174100 0.0 101624
05:00+21в1176100 0.0 101642
08:00+22всв1172100 0.0 1017441
11:00+24в0164100 0.0 1017914
14:00+24ссз1161100 0.1 1014488
17:00+22ссз1378100 0.0 1013223
20:00+21с1282100 0.0 101569
19 апреля, пн
пн1923:00+20ююз1179100 0.2 101667
02:00+18ююз127598 0.4 1015118
05:00+17сз0182100 0.3 1015128
08:00+17з0187100 1.4 1016196
11:00+18з1181100 0.3 1016425
14:00+21ссв227199 0.3 1014640
17:00+23с126393 0.0 1012664
20:00+20с117794 0.0 101420
20 апреля, вт
вт2023:00+20юв117799 0.0 101435
02:00+19ююз116994 0.0 101418
05:00+18ю116862 0.0 101323
08:00+21ююв115823 0.0 1015437
11:00+28юз11430 0.0 10141293
14:00+30зюз223837 0.0 10111901
17:00+28з334646 0.0 1010950
20:00+23ю126512 0.0 101232
21 апреля, ср
ср2123:00+19ю237217 0.0 1015140
02:00+18ююв11798 0.0 101420
05:00+17ю00820 0.0 101312
08:00+22в00640 0.0 1014412
11:00+29з11440 0.0 10131216
14:00+31з224017 0.0 10101859
17:00+30з224311 0.0 10081753
20:00+25ююв235812 0.0 101061
22 апреля, чт
чт2223:00+21ююв246454 0.0 1012248
02:00+19ююв126918 0.0 101182
05:00+18ююв11730 0.0 101025
08:00+23юз12570 0.0 1012456
11:00+29юз23450 0.0 10101232
14:00+32зюз344068 0.0 10062233
17:00+29зсз245164 0.1 1005609
20:00+26зсз116398 0.1 100713